Vertical_Velocity
3 3 12 15 -2 -2 -1 -4 3 2 1 2 -0 -0 1 2 -2 2 -0 0 2 -0
-0 -4 -4 5 5 6 7 1 3 -1 -0 1 -0 1 1 -2 3 2 1 1 1 -0
-4 1 0 3 0 -2 7 8 0 -1 3 -1 -3 -0 -2 0 3 2 -0 1 3 -2
-5 1 1 3 3 4 5 6 11 9 4 8 11 10 3 5 5 3 2 1 -2 -1
-1 0 2 3 3 5 -2 -11 12 17 -1 -3 33 -11 12 13 0 0 7 1 0 -2
-1 -2 0 4 -2 13 5 -2 -2 4 -12 5 -7 1 -23 -23 19 -3 -1 -3 0 0
2 1 -5 2 -4 2 -2 1 4 -0 2 10 3 -6 2 5 -2 1 5 0 -6 -0
2 2 1 1 0 -5 1 -0 0 -4 2 -2 -2 4 -6 -3 8 3 -1 4 2 -3
3 6 -0 -0 4 2 -1 -2 1 0 0 -1 1 1 -1 5 2 1 4 1 -1 0
16 3 1 -1 1 1 -4 2 -2 0 3 -1 2 0 -0 -1 1 2 1 6 3 -0
15 0 12 2 -0 -0 7 -1 -3 -3 -1 2 1 -0 1 1 2 6 1 -1 0 4
3 6 2 10 -1 3 3 10 -13 6 1 2 0 -0 -2 1 2 1 -1 2 2 2
5 7 -20 26 3 10 3 7 4 3 2 7 1 0 -2 -0 1 -1 1 2 0 -2
7 -8 -2 4 5 3 0 13 2 5 4 9 -4 0 0 2 -0 0 -0 1 -1 -2
Height
1486 1491 1496 1502 1509 1516 1521 1527 1533 1538 1544 1550 1554 1559 1563 1567 1570 1575 1579 1583 1586 1588
1483 1487 1492 1498 1502 1509 1516 1522 1528 1534 1539 1544 1548 1553 1557 1561 1565 1570 1575 1579 1582 1584
1477 1482 1488 1494 1499 1503 1508 1514 1521 1526 1532 1536 1540 1545 1550 1555 1560 1565 1569 1574 1577 1580
1472 1478 1484 1489 1495 1500 1506 1508 1515 1519 1525 1530 1534 1539 1543 1549 1554 1559 1564 1568 1572 1576
1467 1473 1478 1483 1489 1493 1500 1501 1506 1511 1520 1520 1524 1536 1539 1543 1548 1551 1557 1561 1566 1571
1461 1467 1473 1478 1484 1488 1492 1499 1502 1508 1512 1520 1524 1528 1533 1539 1541 1546 1550 1553 1560 1563
1456 1462 1469 1474 1478 1483 1487 1491 1496 1503 1507 1512 1517 1522 1529 1530 1538 1541 1545 1549 1555 1558
1451 1457 1462 1467 1472 1478 1482 1486 1491 1495 1500 1507 1512 1517 1522 1527 1533 1535 1539 1542 1546 1551
1445 1450 1455 1461 1466 1470 1477 1481 1486 1490 1496 1501 1507 1513 1517 1522 1526 1529 1533 1536 1540 1544
1437 1443 1449 1455 1460 1465 1470 1475 1480 1486 1490 1495 1501 1506 1510 1515 1519 1523 1526 1530 1533 1538
1431 1437 1441 1447 1453 1458 1463 1466 1473 1478 1485 1490 1495 1499 1504 1509 1513 1516 1520 1524 1528 1533
1429 1434 1437 1441 1446 1453 1457 1460 1465 1471 1478 1483 1487 1492 1496 1502 1507 1510 1515 1519 1523 1528
1430 1430 1437 1436 1439 1447 1450 1456 1461 1466 1471 1476 1481 1484 1489 1496 1500 1505 1510 1514 1519 1524
1424 1428 1435 1435 1437 1445 1446 1450 1457 1460 1465 1470 1476 1480 1486 1491 1495 1501 1505 1510 1516 1522